Wind_Speed
12 11 12 12 13 13 13 14 14 15 14 14 13 12 12 12 12 12 11 11 10 9 8 8 7 7 6 5 5 4 3 3 1 1 2 3 3 3 4 4 4 5 5 6 7 7 7 7 8
11 11 11 12 12 13 13 14 15 15 15 14 14 13 13 13 13 12 11 11 10 9 9 9 8 7 7 6 5 4 4 3 2 1 1 2 3 3 3 4 4 4 5 5 5 5 5 6 7
10 10 10 11 11 13 13 14 15 14 14 14 14 14 13 13 13 12 11 11 10 10 9 9 9 8 7 6 6 5 3 3 2 1 1 1 2 2 2 3 4 4 4 4 4 4 4 6 6
10 10 10 10 12 13 14 14 14 14 14 14 14 14 14 13 13 12 12 12 11 11 10 10 9 8 8 6 6 5 4 2 1 1 0 1 2 2 2 3 3 4 4 3 3 4 4 5 6
10 10 10 11 12 13 14 14 14 14 14 14 14 13 13 13 12 12 12 13 12 12 11 11 10 10 9 8 6 5 4 2 2 2 2 1 1 2 3 3 4 4 3 2 2 3 4 4 5
9 10 10 10 11 12 13 14 14 14 14 13 13 13 13 12 12 12 12 13 13 13 12 11 11 11 9 7 7 5 4 4 3 3 3 2 1 1 2 4 4 3 3 2 2 2 4 3 3
10 10 11 11 12 12 12 14 14 14 13 13 13 13 12 12 12 12 13 14 14 14 13 13 12 11 10 9 7 6 5 5 5 5 4 3 1 1 1 3 3 2 1 2 2 2 3 4 4
9 10 10 11 12 13 13 13 13 13 13 13 13 12 12 12 12 12 13 14 14 13 13 13 13 12 11 11 11 9 8 7 6 6 6 4 3 2 1 1 1 1 1 2 2 2 3 3 4
9 9 10 11 12 13 13 13 13 13 12 12 13 12 12 12 12 12 13 13 13 13 12 13 13 12 11 11 11 11 10 8 7 7 7 6 5 4 3 1 1 1 1 2 2 2 3 3 3
8 9 9 10 11 12 12 13 13 13 12 11 12 12 11 11 11 12 12 13 13 12 12 12 12 12 11 10 11 11 10 9 8 8 7 7 6 6 4 3 2 2 2 2 2 2 2 1 2
7 7 8 9 10 11 11 12 12 13 12 11 11 11 10 11 11 11 12 12 13 13 12 12 12 12 11 11 11 11 11 10 9 8 8 7 6 6 6 5 4 3 3 1 1 1 1 2 2
6 6 7 7 9 10 10 11 12 11 12 11 10 10 10 10 10 10 11 12 13 13 13 12 12 11 11 11 11 11 10 11 10 9 8 6 5 5 6 5 5 4 4 2 1 1 1 1 2
4 5 6 7 8 8 8 9 10 10 11 10 9 10 10 11 10 10 11 12 12 13 13 13 12 11 11 11 11 11 11 10 9 9 8 7 6 6 5 5 4 4 4 3 2 2 2 2 2
2 3 4 6 7 7 7 8 9 10 10 9 9 9 9 10 11 11 11 11 12 12 12 12 12 11 11 11 11 11 10 10 9 9 9 8 7 6 6 5 5 5 5 4 3 3 2 2 2
1 2 4 5 6 7 7 7 8 8 9 9 9 9 9 9 9 10 11 11 12 12 12 12 11 11 11 11 11 11 11 10 10 9 8 8 7 7 5 5 5 5 5 5 4 4 3 3 2
1 2 3 4 5 6 7 7 7 7 7 8 8 8 9 9 9 10 10 10 11 12 11 11 12 12 12 10 10 10 11 10 10 9 8 7 7 7 6 6 6 5 5 6 5 5 4 4 4
3 3 3 2 3 4 5 5 5 5 6 6 6 7 8 8 8 8 9 9 10 10 10 10 10 11 11 11 9 9 9 9 9 8 8 8 7 7 7 8 7 6 5 5 5 5 5 5 4
5 5 4 4 3 3 4 4 3 4 3 4 5 5 6 7 8 7 8 8 8 9 9 9 9 10 10 10 10 9 8 8 8 8 8 8 8 7 7 8 8 8 7 6 6 5 6 6 5
5 5 4 4 4 4 5 4 3 3 2 3 3 4 5 6 7 7 7 7 7 8 8 9 9 9 9 9 8 9 9 8 8 8 8 8 8 8 8 8 8 8 8 7 7 7 7 7 6
5 4 3 5 5 6 5 4 3 3 2 3 3 3 3 4 5 6 7 7 7 7 7 8 8 9 9 8 8 8 8 8 9 9 9 9 8 9 9 9 9 8 8 8 8 7 7 7 7
7 5 4 5 5 6 5 4 4 3 3 4 3 2 3 3 3 5 6 6 6 6 7 7 8 8 8 9 9 8 8 8 9 9 10 10 10 10 10 10 11 10 9 9 8 8 8 8 8
9 8 7 6 7 7 7 6 5 4 5 5 5 4 4 4 3 4 4 5 6 6 6 6 7 7 8 8 8 8 8 8 9 9 10 10 10 10 11 11 11 11 11 10 9 9 9 10 10
11 9 9 8 8 8 9 8 6 6 6 6 6 6 5 5 4 4 4 4 5 5 6 6 7 8 8 8 8 9 9 9 9 10 10 11 11 11 12 12 11 12 12 11 11 11 11 11 11
12 11 10 10 10 9 9 9 7 7 6 6 6 7 6 6 5 4 4 4 5 5 6 6 7 8 8 9 9 9 10 10 10 11 12 12 12 13 13 14 13 13 14 13 13 13 13 13 13
13 12 12 11 11 10 9 9 7 6 6 6 7 7 7 6 6 6 5 5 5 6 7 7 8 8 9 10 10 10 10 11 12 12 13 14 14 14 14 14 14 14 15 14 14 14 15 15 16
14 14 14 13 12 11 10 9 8 7 8 8 8 8 6 6 6 6 6 6 6 7 8 8 9 10 10 11 11 12 12 13 13 14 15 15 16 16 16 16 16 16 16 15 15 15 16 16 17
16 16 16 16 14 13 11 10 8 8 9 9 9 8 7 7 7 6 7 7 8 8 9 10 10 11 12 12 13 13 14 15 15 16 16 17 17 18 17 17 17 17 17 17 17 17 17 17 17
17 17 16 16 15 15 12 10 9 9 10 10 9 8 8 8 8 9 9 9 10 10 10 11 12 13 14 14 14 15 16 17 17 18 19 19 19 19 19 18 18 19 19 19 19 18 19 19 18
17 17 17 17 17 16 15 11 11 11 11 11 11 11 10 9 10 11 11 11 10 11 12 13 14 15 16 17 17 17 18 19 20 21 20 20 21 20 20 19 20 20 21 21 20 20 20 20 20
18 18 18 18 18 17 16 13 13 12 11 12 11 11 11 11 10 11 12 11 11 12 13 14 16 17 17 18 19 20 20 21 22 22 22 22 22 22 21 21 21 21 22 22 22 21 22 22 22
Wind_Direction
68 64 59 58 57 58 58 55 54 50 46 44 43 40 36 34 31 30 29 30 29 27 29 28 31 38 46 54 56 57 59 71 100 186 238 243 238 242 251 249 256 259 262 267 268 260 254 257 257
66 62 59 58 58 60 58 58 56 50 46 44 43 40 36 32 33 34 32 35 35 31 30 31 35 42 46 55 52 54 64 66 76 89 219 221 226 242 256 256 268 262 263 266 261 254 257 255 252
66 62 58 57 60 61 61 59 56 51 48 46 46 44 40 34 35 35 35 37 35 33 34 33 36 45 45 46 48 53 54 56 68 79 188 235 242 244 242 262 270 257 260 259 253 244 251 253 250
66 64 59 57 60 61 60 59 58 52 48 45 46 44 41 35 34 36 38 38 35 34 36 37 40 44 46 45 43 48 45 52 50 23 96 184 237 239 254 258 253 248 249 251 251 249 251 250 257
63 57 61 61 61 60 59 57 54 50 47 45 45 45 41 36 33 37 40 40 37 36 39 42 39 43 43 39 36 39 46 52 52 60 70 105 208 238 243 248 249 252 257 252 257 255 263 263 261
58 56 58 61 58 59 60 57 54 52 48 44 44 48 45 40 37 39 42 42 40 39 37 39 41 42 42 38 33 33 49 65 72 80 77 100 133 255 255 246 239 241 257 252 262 266 261 277 273
58 55 52 54 55 59 58 55 54 52 50 46 45 46 46 43 42 44 43 42 40 38 37 38 41 44 46 42 42 49 63 70 75 77 78 81 95 110 231 226 221 226 261 258 261 277 263 270 272
59 53 51 48 49 52 54 53 50 47 47 46 46 44 44 43 43 44 42 39 39 38 38 42 43 48 52 48 46 51 56 63 74 76 74 83 89 83 99 136 180 212 288 301 282 278 273 283 278
57 53 50 46 47 49 49 49 49 47 47 46 45 41 41 41 42 43 41 39 38 39 40 43 46 49 53 51 51 51 51 61 76 77 72 72 73 72 72 68 48 338 327 329 303 283 285 284 279
57 56 51 47 46 47 43 43 45 44 47 46 42 38 40 41 40 42 42 40 41 44 46 48 50 52 54 52 54 57 59 63 69 80 75 70 66 63 56 51 28 12 9 342 303 292 283 270 283
54 56 56 50 47 48 43 40 40 40 44 45 39 36 37 41 40 41 42 42 44 44 45 48 50 52 51 51 54 58 61 65 70 73 70 66 60 52 49 43 42 48 43 26 321 308 270 279 295
57 58 58 52 46 47 43 38 36 37 42 46 42 37 38 40 41 42 43 44 45 45 45 47 50 55 54 55 54 56 59 59 59 60 65 62 54 49 54 53 48 41 27 17 353 360 336 308 314
56 50 49 44 44 39 35 34 33 35 41 46 46 45 44 44 43 44 45 44 45 46 46 47 50 54 56 58 56 58 59 61 61 57 57 50 44 52 54 43 41 37 30 29 33 43 18 353 333
52 57 40 36 33 31 31 34 34 33 41 44 44 43 43 46 47 47 45 44 45 44 44 46 48 52 52 54 57 57 56 56 57 56 54 48 48 54 48 41 36 39 35 34 36 21 13 4 339
20 29 30 36 29 25 29 33 33 32 38 43 44 44 46 46 46 47 46 45 45 45 48 49 48 49 49 52 55 55 52 54 53 51 49 47 47 46 42 37 33 32 31 24 17 359 359 1 355
301 355 19 23 22 19 19 26 30 30 38 43 42 45 49 48 46 43 44 45 46 45 47 46 47 48 47 47 51 51 51 50 51 50 47 46 41 40 33 27 29 29 24 16 9 6 356 356 2
289 311 326 338 5 9 7 24 29 24 39 40 41 47 51 48 46 43 41 41 41 43 44 42 45 46 46 47 49 48 48 45 45 46 41 37 36 32 25 23 22 19 14 4 358 359 359 352 350
282 286 285 291 315 338 347 356 4 5 26 42 40 41 43 42 37 36 36 35 35 37 40 39 39 42 42 43 43 41 35 30 32 33 32 32 31 27 20 14 9 5 2 354 346 349 353 349 336
272 278 271 281 296 303 315 326 336 350 14 25 28 34 37 32 29 28 28 28 27 29 35 37 36 37 36 35 35 33 30 27 24 23 23 22 20 14 7 2 357 352 348 346 343 338 339 338 331
249 253 272 281 288 299 301 305 307 315 331 352 358 8 14 15 22 19 19 21 21 23 28 32 32 33 31 27 25 22 20 17 13 10 8 4 2 357 352 346 343 340 339 336 335 332 331 325 321
243 253 269 278 279 292 294 292 290 304 316 328 337 332 339 343 3 12 15 14 17 19 24 25 22 20 21 20 16 13 11 8 5 4 0 356 352 349 344 337 332 330 328 326 325 326 324 318 315
243 258 269 279 283 285 283 275 268 285 310 321 329 311 304 307 326 349 356 9 13 12 15 14 10 10 9 9 8 7 4 358 353 350 349 346 342 338 337 333 326 324 323 320 317 314 315 312 310
248 261 270 277 285 283 282 276 269 277 297 310 318 313 305 295 299 325 342 357 4 2 2 0 356 358 359 358 359 356 353 350 346 343 342 339 336 332 329 327 325 322 321 318 314 312 307 307 308
252 258 267 276 280 281 284 276 274 281 298 305 310 312 308 288 284 299 321 331 341 345 347 350 346 346 349 351 350 348 346 342 338 335 333 331 328 326 324 324 322 318 319 317 313 309 308 308 307
251 255 263 272 277 279 282 276 276 283 299 302 301 299 297 288 283 291 307 317 322 328 331 335 337 337 338 340 341 339 336 334 332 330 328 325 322 321 320 319 321 321 320 317 310 308 308 308 307
251 256 263 271 276 276 275 276 278 284 295 297 299 299 298 289 279 287 300 304 314 320 320 322 325 329 330 330 329 330 328 327 326 325 322 320 317 317 316 315 315 318 318 316 311 310 308 307 308
248 254 261 267 272 273 270 272 277 282 286 286 290 292 290 284 280 285 293 300 307 315 317 316 317 320 322 323 322 322 321 320 319 319 318 315 312 311 310 308 308 310 311 310 307 308 307 306 306
247 251 256 261 268 271 268 273 283 283 282 283 287 288 287 276 274 278 288 297 304 309 313 314 314 315 317 318 318 315 316 315 313 313 313 312 308 308 307 304 304 305 305 305 303 303 302 302 302
246 250 255 258 262 267 269 271 281 284 281 281 285 286 288 282 272 274 280 289 297 305 311 312 312 312 313 313 312 311 310 309 308 308 309 309 305 304 303 302 302 301 301 302 301 300 301 301 302
245 251 254 257 261 265 269 271 274 277 280 282 282 281 285 283 277 278 282 288 295 302 307 308 309 309 309 309 307 307 306 306 307 307 307 306 305 304 302 302 301 299 299 300 299 300 300 300 301
Height
5888 5888 5888 5888 5887 5885 5883 5883 5881 5880 5880 5879 5877 5877 5876 5875 5875 5876 5872 5869 5868 5867 5865 5863 5862 5861 5859 5859 5859 5859 5859 5859 5860 5860 5860 5861 5862 5862 5863 5864 5865 5865 5866 5866 5866 5866 5867 5867 5868
5890 5890 5890 5890 5888 5887 5886 5884 5883 5882 5881 5880 5879 5878 5877 5875 5874 5873 5872 5870 5869 5867 5865 5864 5862 5860 5859 5859 5859 5859 5859 5859 5859 5859 5860 5860 5861 5861 5862 5863 5863 5864 5865 5865 5865 5866 5866 5866 5867
5892 5892 5892 5891 5889 5888 5888 5886 5885 5884 5883 5882 5880 5879 5878 5877 5875 5874 5872 5871 5869 5868 5866 5864 5863 5861 5860 5859 5859 5859 5859 5859 5859 5859 5859 5859 5860 5860 5861 5861 5862 5863 5863 5864 5864 5865 5865 5865 5865
5894 5894 5894 5893 5890 5889 5889 5887 5886 5885 5884 5883 5882 5881 5879 5878 5876 5875 5873 5872 5870 5868 5866 5865 5863 5861 5860 5860 5859 5859 5858 5858 5858 5858 5858 5859 5859 5860 5860 5860 5860 5862 5862 5863 5863 5863 5864 5864 5865
5896 5895 5895 5893 5891 5891 5890 5888 5887 5886 5886 5885 5883 5882 5881 5879 5878 5876 5874 5873 5871 5869 5867 5865 5864 5862 5861 5860 5859 5858 5858 5858 5857 5858 5858 5858 5858 5859 5859 5859 5859 5860 5861 5862 5863 5863 5864 5864 5864
5897 5896 5896 5894 5893 5892 5891 5890 5889 5888 5887 5886 5885 5884 5882 5881 5879 5877 5876 5874 5872 5870 5868 5866 5865 5863 5861 5860 5859 5858 5857 5857 5857 5857 5857 5858 5858 5858 5857 5857 5858 5860 5861 5862 5862 5862 5863 5863 5863
5899 5897 5896 5895 5894 5893 5893 5891 5890 5889 5889 5888 5887 5886 5884 5883 5881 5879 5877 5875 5873 5871 5869 5867 5865 5864 5862 5860 5859 5857 5856 5856 5856 5856 5857 5858 5858 5857 5856 5856 5857 5859 5861 5861 5862 5862 5863 5863 5863
5899 5899 5897 5896 5895 5895 5894 5893 5892 5891 5890 5889 5888 5887 5886 5884 5882 5880 5878 5876 5874 5873 5871 5869 5867 5865 5863 5862 5860 5858 5857 5856 5857 5857 5858 5858 5858 5858 5858 5857 5858 5860 5861 5861 5862 5862 5862 5862 5862
5901 5901 5899 5898 5897 5896 5895 5894 5894 5893 5892 5891 5889 5888 5887 5885 5883 5882 5880 5878 5876 5874 5872 5870 5868 5866 5865 5863 5861 5859 5858 5857 5857 5858 5859 5859 5859 5859 5859 5859 5859 5860 5860 5861 5862 5862 5862 5862 5862
5902 5901 5900 5900 5899 5898 5897 5896 5895 5894 5893 5892 5891 5889 5888 5886 5885 5883 5882 5880 5878 5876 5873 5871 5870 5868 5867 5866 5864 5862 5860 5859 5859 5859 5860 5860 5860 5860 5860 5860 5860 5860 5861 5861 5861 5862 5862 5863 5863
5903 5902 5901 5901 5900 5899 5898 5897 5896 5895 5894 5893 5892 5891 5889 5887 5886 5885 5883 5881 5879 5877 5875 5873 5872 5870 5869 5868 5866 5865 5863 5862 5861 5861 5861 5862 5862 5861 5861 5860 5860 5861 5861 5861 5862 5862 5862 5862 5862
5904 5903 5902 5902 5901 5901 5900 5899 5898 5897 5896 5894 5893 5892 5890 5889 5887 5886 5884 5883 5881 5879 5877 5875 5874 5872 5871 5869 5868 5867 5866 5865 5864 5864 5864 5864 5863 5863 5862 5862 5861 5861 5862 5862 5862 5861 5861 5862 5862
5904 5904 5903 5903 5902 5902 5901 5900 5899 5898 5897 5895 5894 5893 5892 5890 5889 5887 5886 5884 5882 5881 5879 5877 5876 5874 5873 5871 5870 5869 5868 5867 5867 5866 5866 5865 5865 5864 5863 5863 5863 5862 5862 5862 5862 5861 5862 5862 5862
5905 5904 5904 5904 5903 5902 5902 5901 5900 5899 5898 5897 5895 5894 5893 5892 5890 5889 5887 5886 5884 5882 5880 5879 5877 5876 5875 5873 5872 5871 5870 5869 5869 5868 5867 5867 5866 5865 5864 5864 5863 5863 5862 5862 5862 5862 5862 5862 5861
5905 5905 5905 5904 5903 5903 5903 5902 5900 5900 5899 5898 5897 5895 5894 5893 5891 5890 5889 5887 5885 5883 5882 5880 5879 5878 5876 5875 5874 5873 5872 5871 5870 5869 5869 5868 5867 5866 5865 5865 5864 5864 5863 5863 5862 5862 5862 5861 5861
5906 5906 5905 5905 5904 5903 5904 5902 5901 5900 5899 5899 5898 5897 5895 5894 5893 5891 5890 5889 5887 5885 5883 5882 5881 5879 5878 5877 5876 5875 5873 5872 5872 5871 5870 5869 5868 5867 5867 5866 5865 5864 5864 5863 5863 5862 5861 5861 5860
5906 5906 5905 5905 5904 5903 5903 5902 5901 5900 5899 5899 5899 5898 5896 5895 5894 5892 5891 5890 5888 5887 5885 5883 5882 5880 5879 5878 5877 5876 5875 5874 5873 5872 5871 5870 5869 5868 5868 5867 5866 5865 5864 5864 5863 5862 5861 5860 5860
5905 5905 5905 5904 5904 5903 5902 5901 5901 5900 5899 5899 5899 5898 5897 5896 5895 5893 5892 5891 5889 5888 5886 5885 5883 5882 5881 5880 5878 5878 5876 5875 5874 5873 5872 5871 5870 5869 5868 5867 5866 5865 5865 5864 5863 5861 5860 5860 5859
5904 5904 5904 5904 5903 5902 5901 5901 5900 5900 5899 5899 5899 5898 5897 5897 5895 5894 5893 5891 5890 5889 5888 5886 5885 5883 5882 5881 5880 5879 5877 5876 5875 5874 5873 5871 5870 5869 5868 5867 5866 5865 5864 5863 5862 5861 5860 5859 5858
5903 5903 5903 5903 5902 5901 5901 5901 5901 5900 5900 5899 5899 5898 5898 5897 5896 5894 5893 5892 5891 5890 5889 5887 5886 5885 5883 5882 5881 5880 5878 5877 5876 5874 5873 5872 5871 5869 5868 5867 5866 5865 5864 5862 5861 5860 5859 5858 5857
5902 5903 5902 5902 5901 5901 5901 5901 5900 5900 5900 5899 5899 5898 5897 5896 5895 5894 5893 5892 5891 5890 5889 5888 5887 5886 5884 5883 5881 5880 5879 5877 5876 5875 5874 5872 5871 5869 5868 5866 5865 5864 5862 5861 5860 5859 5858 5857 5856
5901 5901 5901 5901 5901 5900 5900 5900 5900 5899 5899 5899 5898 5897 5897 5896 5895 5894 5893 5892 5891 5890 5889 5888 5887 5886 5884 5883 5882 5880 5879 5877 5876 5874 5873 5871 5870 5868 5867 5865 5863 5862 5861 5860 5859 5858 5856 5855 5854
5900 5900 5900 5900 5899 5899 5899 5899 5900 5898 5898 5898 5898 5897 5896 5895 5894 5893 5893 5892 5891 5890 5889 5888 5887 5886 5884 5883 5881 5880 5878 5877 5875 5874 5872 5870 5869 5867 5865 5864 5862 5861 5860 5858 5857 5855 5854 5853 5852
5898 5898 5898 5898 5898 5898 5897 5897 5898 5898 5897 5897 5896 5896 5895 5894 5893 5893 5892 5891 5891 5890 5889 5888 5887 5885 5884 5882 5881 5879 5878 5876 5875 5873 5871 5869 5867 5866 5864 5862 5860 5859 5858 5856 5855 5853 5851 5850 5849
5895 5896 5896 5896 5896 5896 5896 5896 5897 5897 5896 5896 5895 5895 5894 5893 5892 5892 5891 5891 5890 5889 5888 5887 5885 5884 5883 5881 5880 5878 5877 5875 5874 5872 5870 5868 5866 5864 5862 5860 5858 5856 5855 5853 5852 5850 5849 5847 5846
5893 5894 5895 5895 5894 5895 5894 5894 5896 5896 5895 5894 5894 5893 5893 5892 5891 5891 5891 5890 5889 5888 5887 5886 5884 5883 5882 5880 5878 5876 5875 5873 5872 5870 5868 5866 5863 5861 5859 5857 5856 5854 5852 5850 5849 5847 5845 5844 5842
5890 5891 5892 5892 5892 5892 5893 5893 5894 5894 5893 5893 5893 5892 5891 5891 5890 5890 5889 5888 5888 5887 5885 5884 5883 5881 5880 5878 5876 5874 5873 5871 5869 5867 5865 5862 5860 5858 5856 5854 5852 5850 5849 5847 5845 5843 5842 5840 5838
5887 5888 5888 5889 5889 5889 5890 5891 5892 5892 5891 5891 5891 5890 5890 5890 5889 5888 5887 5886 5886 5885 5884 5882 5881 5879 5877 5876 5874 5872 5870 5868 5866 5864 5861 5859 5856 5854 5852 5850 5848 5846 5845 5843 5841 5839 5837 5835 5834
5884 5885 5885 5886 5886 5887 5887 5891 5890 5890 5889 5889 5889 5888 5887 5887 5887 5886 5886 5885 5884 5882 5881 5880 5878 5876 5874 5872 5870 5868 5866 5864 5862 5859 5857 5854 5852 5849 5847 5845 5844 5842 5840 5838 5836 5834 5832 5830 5829
5880 5881 5883 5884 5884 5884 5885 5890 5888 5888 5887 5886 5886 5885 5885 5884 5884 5884 5883 5882 5881 5880 5878 5876 5874 5872 5870 5869 5867 5865 5862 5860 5857 5855 5852 5850 5847 5845 5842 5840 5838 5836 5834 5833 5831 5829 5827 5825 5823